Weather in Napalkovo

Russia / Yamalo-Nenets Autonomous Okrug     70°02′51″N   73°46′44″E
temp.,
°C
wind,
m/s
gust,
m/s
humid.,
%
clouds,
%
prec.,
mm/h
press.,
hPa
HPBL,
m
27 november, sat
sat2723:00−28e1110098 0.0 100433
02:00−28ese2210093 0.0 100533
05:00−29ese2210092 0.0 100635
08:00−29se2210092 0.0 100638
11:00−29ese2210092 0.0 100737
14:00−28ese2310082 0.0 100749
17:00−28ese239915 0.0 100842
20:00−24ese2310094 0.0 100783
28 november, sun
sun2823:00−21ese229895 0.1 1008117
02:00−22e229992 0.1 100994
05:00−22ene219896 0.1 1011111
08:00−22ne229996 0.1 101290
11:00−22nne119894 0.1 101461
14:00−24n2210098 0.0 101637
17:00−23nw11100100 0.1 101834
20:00−27se1110097 0.0 101945
29 november, mon
mon2923:00−27sse2210099 0.1 101939
02:00−27sse22100100 0.0 102042
05:00−28sse3310097 0.1 101954
08:00−28se3410093 0.0 101861
11:00−27sse359911 0.0 101768
14:00−28se3510058 0.0 101668
17:00−28se4610077 0.0 101576
20:00−28ese3510047 0.0 101469
30 november, tue
tue3023:00−29ese3410052 0.0 101353
02:00−30se2210059 0.0 101236
05:00−30se1110072 0.0 101238
08:00−26sw22100100 0.0 101329
11:00−19wnw4697100 0.1 1013311
14:00−20nw46100100 0.1 101599
17:00−21nnw34100100 0.1 101749
20:00−22w22100100 0.0 101820
1 december, wed
wed123:00−23sw33100100 0.0 101822
02:00−23s4610092 0.0 101862
05:00−23s4710077 0.0 101785
08:00−24sse4895100 0.0 101688
11:00−23se51192100 0.0 1014151
14:00−23ese51193100 0.0 1012158
17:00−21ese61486100 0.0 1009264
20:00−20e71386100 0.0 1008261